Terug naar catalogus

STARLINK-30912

ActiefCommunicatieVLEO
NORAD 58422·PAYLOAD·🇺🇸 United States

Gelanceerd Nov 22, 2023 vanaf Cape Canaveral Space Force Station

Loading…

Volgende Passages (komende 24 uur)

TLE

VersSource: CelesTrak SupGP

Epoch: Sep 14, 2026, 21:00 UTC

1 58422C 23180W   26257.87548611 -.00019316  00000+0 -69972-3 0  2571
2 58422  43.0004 281.8779 0001494 262.6322  10.2812 15.27582578    12

Volg STARLINK-30912 in realtime met AllMySat

Download on the App Store